Regional Weather Roundup
Issued by NWS Sioux Falls, SD

Home | Current Version | Previous Version | Text Only | Print | Product List | Glossary Off
Versions: 1 2 3 4 5 6 7 8 9 10 11 12 13 14 15 16 17 18 19 20 21 22 23 24 25 26 27 28 29 30 31 32 33 34 35 36 37 38 39 40 41 42 43 44 45 46 47 48 49 50

000
ASUS43 KFSD 270802
RWRFSD

WEATHER ROUNDUP FOR SE SOUTH DAKOTA/SW MINNESOTA/NW IOWA
NATIONAL WEATHER SERVICE SIOUX FALLS SD
300 AM CDT THU AUG 27 2015

NOTE: "FAIR" INDICATES FEW OR NO CLOUDS BELOW 12,000 FEET WITH NO
SIGNIFICANT WEATHER AND OR OBSTRUCTIONS TO VISIBILITY.


SDZ038>040-050-052>070-270900-
SOUTHEAST SOUTH DAKOTA

CITY           SKY/WX    TMP DP  RH WIND       PRES   REMARKS
BROOKINGS      CLOUDY    61  57  88 S8        30.06S
CHAMBERLAIN    CLOUDY    68  66  96 E8        29.96F
HURON          LGT RAIN  66  62  87 VRB6      30.00R
MADISON        FAIR      63  63 100 S8        30.05R
MITCHELL       CLOUDY    66  62  87 SE10      29.99S
SIOUX FALLS    CLOUDY    65  60  84 SE8       30.04S
WINNER         PTSUNNY   76  65  68 NW3       30.03R THUNDER
YANKTON        CLOUDY    66  61  82 SE8       30.00R
$$

MNZ071-072-080-081-089-090-097-098-270900-
SOUTHWEST MINNESOTA

CITY           SKY/WX    TMP DP  RH WIND       PRES   REMARKS
FAIRMONT       MOCLDY    55  50  82 S6        30.09R
JACKSON        PTCLDY    59  54  82 S7        30.08S
LUVERNE        MOCLDY    59  55  88 CALM      30.07R
MARSHALL       PTCLDY    57  52  82 E5        30.06R
MONTEVIDEO     PTCLDY    59  55  88 S5        30.07S
PIPESTONE      MOCLDY    61  57  88 S7        30.06S
REDWOOD FALLS  MOCLDY    59  54  83 E6        30.06R
TRACY          PTCLDY    61  55  82 S14       30.04F
WINDOM         PTCLDY    59  54  82 CALM      30.07S
WORTHINGTON    CLEAR     59  52  77 S8        30.08R
$$

IAZ001>003-012>014-020>022-031-032-NEZ013-014-SDZ071-270900-
NORTHWEST IOWA

CITY           SKY/WX    TMP DP  RH WIND       PRES   REMARKS
DENISON        MOCLDY    61  54  77 S8        30.05F
ESTHERVILLE    PTCLDY    55  53  93 S6        30.08S
SIOUX CITY     MOCLDY    61  57  87 SE6       30.04S
SPENCER        CLEAR     55  51  86 S5        30.08F
$$

ABBREVIATIONS USED IN REMARKS
   TC - TEMPERATURE IN CELSIUS
  WCI - WIND CHILL INDEX
   HX - HEAT INDEX
  VSB - VISIBILITY




USA.gov is the U.S. government's official web portal to all federal, state and local government web resources and services.